Change the Weather History Date:

Tuesday, May 13, 2014

  Actual Average Record
Temperature  
Mean Temperature 58 °F -  
Max Temperature 66 °F 72 °F 88 °F (1982)
Min Temperature 50 °F 46 °F 31 °F (1981)
Degree Days  
Heating Degree Days 7    
Growing Degree Days 8 (Base 50)    
Moisture  
Dew Point 52 °F    
Average Humidity 85    
Maximum Humidity 96    
Minimum Humidity 74    
Precipitation  
Precipitation 0.20 in - - ()
Sea Level Pressure  
Sea Level Pressure 30.02 in    
Wind  
Wind Speed 8 mph (WNW)    
Max Wind Speed 20 mph    
Max Gust Speed 24 mph    
Visibility 9 miles    
Events Rain    
Averages and records for this station are not official NWS values.
T = Trace of Precipitation, MM = Missing Value Source: NWS Daily Summary

Daily Weather History Graph

Daily Weather History Graph

Search for Another Location

Airport or City:

Trip Planner

Search our weather history database for the weather conditions in past years. The results will help you decide how hot, cold, wet, or windy it might be!

Date:

Astronomy

May. 13, 2014 Rise Set
Actual Time 5:39 AM CDT 8:06 PM CDT
Civil Twilight 5:08 AM CDT 8:38 PM CDT
Nautical Twilight 4:29 AM CDT 9:17 PM CDT
Astronomical Twilight 3:46 AM CDT 10:00 PM CDT
Moon 7:07 PM CDT (5/13) 4:57 AM CDT (5/13)
Length of Visible Light 15h 29m
Length of Day
14h 26m
Waxing Gibbous, 99% of the Moon is Illuminated
May 13
Waxing Gibbous
May 14
Full
May 21
Last Quarter
May 28
New
Jun 5
First Quarter

Hourly Weather History & Observations

Time (CDT) Temp. Dew Point Humidity Pressure Visibility Wind Dir Wind Speed Gust Speed Precip Events Conditions
12:15 AM 65.7 °F 64.4 °F 96% 29.85 in 10.0 mi SE 9.2 mph - N/A   Scattered Clouds
12:35 AM 65.7 °F 64.4 °F 96% 29.85 in 7.0 mi Calm Calm - N/A   Mostly Cloudy
12:55 AM 65.7 °F 64.6 °F 96% 29.86 in 5.0 mi Calm Calm - N/A   Overcast
1:15 AM 66.0 °F 64.8 °F 96% 29.86 in 3.0 mi Calm Calm - N/A Rain Light Rain
1:35 AM 66.2 °F 64.9 °F 96% 29.86 in 5.0 mi Calm Calm - N/A   Overcast
1:55 AM 66.2 °F 64.9 °F 96% 29.85 in 7.0 mi SE 8.1 mph - N/A   Overcast
2:15 AM 65.8 °F 64.6 °F 96% 29.86 in 10.0 mi Calm Calm - N/A   Overcast
2:35 AM 65.7 °F 64.2 °F 95% 29.89 in 10.0 mi SSW 10.4 mph - N/A   Overcast
2:55 AM 65.5 °F 64.0 °F 95% 29.91 in 10.0 mi South 12.7 mph - 0.01 in Rain Rain
3:15 AM 64.9 °F 63.5 °F 95% 29.89 in 7.0 mi South 9.2 mph - 0.06 in Rain Light Rain
3:35 AM 64.9 °F 63.5 °F 95% 29.89 in 10.0 mi South 9.2 mph - 0.08 in Rain Light Rain
3:55 AM 64.9 °F 63.5 °F 95% 29.89 in 10.0 mi SSW 8.1 mph - 0.08 in   Light Drizzle
4:15 AM 64.9 °F 63.5 °F 95% 29.89 in 5.0 mi Calm Calm - 0.01 in   Drizzle
4:35 AM 64.9 °F 63.5 °F 95% 29.89 in 5.0 mi Calm Calm - 0.01 in   Drizzle
4:55 AM 64.9 °F 63.5 °F 95% 29.89 in 4.0 mi SW 9.2 mph - 0.04 in Rain Rain
5:15 AM 59.0 °F 57.2 °F 94% 29.90 in 2.5 mi WNW 13.8 mph - 0.03 in Rain Heavy Rain
5:35 AM 57.6 °F 55.9 °F 94% 29.90 in 4.0 mi WNW 16.1 mph 21.9 mph 0.04 in   Drizzle
5:55 AM 55.9 °F 54.3 °F 94% 29.91 in 5.0 mi WNW 13.8 mph - 0.05 in Rain Rain
6:15 AM 55.6 °F 54.0 °F 94% 29.90 in 5.0 mi NW 10.4 mph - N/A Rain Light Rain
6:35 AM 55.4 °F 53.6 °F 94% 29.91 in 5.0 mi WNW 9.2 mph - 0.01 in   Drizzle
6:55 AM 55.0 °F 53.2 °F 94% 29.93 in 7.0 mi WNW 9.2 mph - 0.02 in   Drizzle
7:55 AM 53.6 °F 51.8 °F 94% 29.95 in 7.0 mi West 8.1 mph - N/A   Overcast
8:15 AM 54.7 °F 52.7 °F 93% 29.96 in 10.0 mi West 9.2 mph - N/A   Overcast
8:35 AM 54.7 °F 52.7 °F 93% 29.96 in 7.0 mi West 11.5 mph 20.7 mph N/A   Overcast
9:15 AM 54.7 °F 51.8 °F 90% 29.99 in 10.0 mi West 12.7 mph 20.7 mph N/A   Overcast
10:55 AM 54.7 °F 50.5 °F 86% 30.01 in 10.0 mi WNW 11.5 mph - N/A   Overcast
11:35 AM 54.7 °F 49.6 °F 83% 30.03 in 10.0 mi West 13.8 mph - N/A   Overcast
12:15 PM 54.5 °F 49.6 °F 84% 30.04 in 10.0 mi West 15.0 mph 20.7 mph N/A   Overcast
12:35 PM 54.7 °F 49.5 °F 83% 30.04 in 10.0 mi WNW 12.7 mph - N/A   Overcast
12:55 PM 53.8 °F 48.7 °F 83% 30.04 in 10.0 mi West 16.1 mph 20.7 mph N/A   Overcast
1:15 PM 54.0 °F 49.1 °F 84% 30.04 in 10.0 mi WNW 13.8 mph 18.4 mph N/A   Overcast
1:35 PM 54.7 °F 48.7 °F 80% 30.05 in 10.0 mi WNW 15.0 mph - N/A   Overcast
1:55 PM 53.6 °F 47.8 °F 81% 30.05 in 10.0 mi WNW 13.8 mph 19.6 mph N/A   Overcast
2:15 PM 53.1 °F 47.7 °F 82% 30.06 in 10.0 mi WNW 16.1 mph 21.9 mph N/A   Overcast
2:35 PM 53.6 °F 47.5 °F 80% 30.06 in 10.0 mi WNW 18.4 mph 21.9 mph N/A   Overcast
2:55 PM 53.6 °F 47.1 °F 79% 30.06 in 10.0 mi NW 19.6 mph - N/A   Overcast
3:15 PM 53.8 °F 46.8 °F 77% 30.07 in 10.0 mi WNW 16.1 mph - N/A   Overcast
3:35 PM 53.6 °F 46.8 °F 78% 30.07 in 10.0 mi WNW 16.1 mph - N/A   Overcast
3:55 PM 54.0 °F 46.9 °F 77% 30.08 in 10.0 mi WNW 12.7 mph 20.7 mph N/A   Overcast
4:15 PM 53.6 °F 46.4 °F 77% 30.08 in 10.0 mi WNW 11.5 mph - N/A   Overcast
4:35 PM 54.0 °F 46.4 °F 76% 30.09 in 10.0 mi WNW 12.7 mph 19.6 mph N/A   Overcast
4:55 PM 53.8 °F 46.8 °F 77% 30.08 in 10.0 mi WNW 17.3 mph 24.2 mph N/A   Overcast
5:15 PM 53.6 °F 46.6 °F 77% 30.10 in 10.0 mi WNW 12.7 mph - N/A   Light Drizzle
5:35 PM 53.6 °F 46.4 °F 77% 30.10 in 10.0 mi WNW 13.8 mph 21.9 mph N/A   Overcast
5:55 PM 53.6 °F 46.4 °F 77% 30.10 in 10.0 mi WNW 13.8 mph 17.3 mph N/A   Overcast
6:15 PM 53.6 °F 45.9 °F 75% 30.10 in 10.0 mi WNW 13.8 mph - N/A   Overcast
6:35 PM 53.6 °F 46.0 °F 76% 30.11 in 10.0 mi West 10.4 mph 18.4 mph N/A   Overcast
6:55 PM 53.6 °F 45.9 °F 75% 30.11 in 10.0 mi WNW 6.9 mph - N/A   Overcast
7:15 PM 53.6 °F 46.2 °F 76% 30.11 in 10.0 mi WNW 12.7 mph - N/A   Overcast
7:35 PM 53.6 °F 45.5 °F 74% 30.12 in 10.0 mi WNW 9.2 mph 17.3 mph N/A   Overcast
7:55 PM 53.2 °F 45.3 °F 74% 30.13 in 10.0 mi NW 11.5 mph - N/A   Overcast
8:15 PM 52.9 °F 45.1 °F 75% 30.13 in 10.0 mi NW 11.5 mph - N/A   Overcast
8:35 PM 52.9 °F 45.3 °F 75% 30.14 in 10.0 mi NW 10.4 mph - N/A   Overcast
8:55 PM 52.7 °F 44.8 °F 74% 30.15 in 10.0 mi NW 3.5 mph - N/A   Overcast
9:15 PM 52.5 °F 44.4 °F 74% 30.16 in 10.0 mi Calm Calm - N/A   Overcast
9:35 PM 52.2 °F 44.8 °F 76% 30.17 in 10.0 mi Calm Calm - N/A   Overcast
9:55 PM 52.2 °F 45.5 °F 78% 30.17 in 10.0 mi Calm Calm - N/A   Overcast
10:15 PM 52.2 °F 45.7 °F 79% 30.18 in 10.0 mi Calm Calm - N/A   Overcast
10:35 PM 52.0 °F 45.9 °F 80% 30.17 in 10.0 mi Calm Calm - N/A   Overcast
10:55 PM 51.8 °F 46.4 °F 82% 30.17 in 10.0 mi Calm Calm - N/A   Overcast
11:15 PM 50.9 °F 45.5 °F 82% 30.16 in 10.0 mi Calm Calm - N/A   Overcast
11:35 PM 50.4 °F 45.0 °F 82% 30.17 in 10.0 mi Calm Calm - N/A   Scattered Clouds
11:55 PM 50.5 °F 45.0 °F 81% 30.18 in 10.0 mi West 4.6 mph - N/A   Scattered Clouds